Blountville, TN

7:00 PM EST on February 19, 2017 (GMT -0500)
Tri-Cities Regional Tennessee / Virginia

Weather History for KTRI - January, 2013

Change the Weather History Date:

Thursday, January 31, 2013

  Actual Average Record
Temperature  
Mean Temperature 37 °F 36 °F  
Max Temperature 43 °F 46 °F 76 °F (2002)
Min Temperature 30 °F 26 °F -15 °F (1966)
Degree Days  
Heating Degree Days 28 29  
Month to date heating degree days 771 925  
Since 1 July heating degree days 2438 2654  
Cooling Degree Days 0 0  
Month to date cooling degree days 0 0  
Year to date cooling degree days 0 0  
Moisture  
Dew Point 24 °F    
Average Humidity 65    
Maximum Humidity 85    
Minimum Humidity 44    
Precipitation  
Precipitation 0.03 in 0.12 in 1.75 in (1957)
Month to date precipitation 9.99 3.37  
Year to date precipitation 9.99 3.37  
Snow  
Snow T in 0.20 in - ()
Month to date snowfall 3.5 4.7  
Since 1 July snowfall 4.1 7.4  
Snow Depth 0.00 in    
Sea Level Pressure  
Sea Level Pressure 29.84 in    
Wind  
Wind Speed 15 mph (WSW)    
Max Wind Speed 32 mph    
Max Gust Speed 47 mph    
Visibility 9 miles    
Events Rain , Snow    
T = Trace of Precipitation, MM = Missing Value Source: NWS Daily Summary

Daily Weather History Graph

Daily Weather History Graph

Search for Another Location

Airport or City:

Trip Planner

Search our weather history database for the weather conditions in past years. The results will help you decide how hot, cold, wet, or windy it might be!

Date:

Astronomy

Jan. 31, 2013 Rise Set
Actual Time 7:31 AM EST 5:54 PM EST
Civil Twilight 7:04 AM EST 6:22 PM EST
Nautical Twilight 6:33 AM EST 6:53 PM EST
Astronomical Twilight 6:03 AM EST 7:23 PM EST
Moon 10:45 PM EST (1/31) 9:40 AM EST (1/31)
Length of Visible Light 11h 17m
Length of Day
10h 23m
Waning Gibbous, 80% of the Moon is Illuminated
Jan 31
Waning Gibbous
Feb 3
Last Quarter
Feb 10
New
Feb 17
First Quarter
Feb 25
Full

Hourly Weather History & Observations

Time (EST) Temp. Windchill Dew Point Humidity Pressure Visibility Wind Dir Wind Speed Gust Speed Precip Events Conditions
12:53 AM 42.1 °F 33.6 °F 34.0 °F 73% 29.56 in 10.0 mi WSW 18.4 mph 36.8 mph 0.01 in Rain Light Rain
1:35 AM 39.9 °F 30.8 °F 35.1 °F 83% 29.62 in 6.0 mi West 18.4 mph 29.9 mph 0.00 in Rain Rain
1:53 AM 37.9 °F 27.6 °F 34.0 °F 86% 29.61 in 8.0 mi West 20.7 mph 27.6 mph 0.02 in Rain Light Rain
2:07 AM 37.9 °F 27.6 °F 33.1 °F 83% 29.65 in 10.0 mi West 20.7 mph 28.8 mph 0.01 in Rain Light Rain
2:36 AM 36.0 °F 23.5 °F 30.9 °F 82% 29.69 in 7.0 mi West 27.6 mph 39.1 mph 0.01 in Snow Light Snow
2:44 AM 35.1 °F 21.8 °F 30.0 °F 82% 29.69 in 2.5 mi West 29.9 mph 47.2 mph 0.01 in Snow Light Snow
2:53 AM 34.0 °F 21.8 °F 30.0 °F 85% 29.68 in 1.5 mi West 23.0 mph 36.8 mph 0.01 in Snow Light Snow
3:00 AM 34.0 °F 22.4 °F 30.0 °F 85% 29.71 in 3.0 mi West 20.7 mph 31.1 mph 0.00 in Snow Light Snow
3:24 AM 34.0 °F 21.3 °F 27.0 °F 75% 29.73 in 9.0 mi West 25.3 mph 35.7 mph 0.00 in   Mostly Cloudy
3:53 AM 34.0 °F 22.1 °F 25.0 °F 70% 29.74 in 10.0 mi West 21.9 mph 33.4 mph 0.00 in   Mostly Cloudy
4:53 AM 32.0 °F 20.5 °F 24.1 °F 73% 29.77 in 10.0 mi West 18.4 mph 25.3 mph 0.00 in   Mostly Cloudy
5:53 AM 32.0 °F 20.5 °F 21.0 °F 64% 29.79 in 10.0 mi West 18.4 mph 28.8 mph N/A   Mostly Cloudy
6:53 AM 30.9 °F 20.2 °F 23.0 °F 72% 29.82 in 10.0 mi West 15.0 mph 21.9 mph N/A   Mostly Cloudy
7:53 AM 32.0 °F 18.9 °F 19.0 °F 59% 29.85 in 10.0 mi West 24.2 mph 29.9 mph N/A   Overcast
8:53 AM 30.9 °F 19.8 °F 21.9 °F 69% 29.90 in 9.0 mi WSW 16.1 mph 24.2 mph 0.00 in Snow Light Snow
9:53 AM 32.0 °F 22.5 °F 21.0 °F 64% 29.92 in 9.0 mi WSW 12.7 mph 21.9 mph 0.00 in Snow Light Snow
10:53 AM 32.0 °F 22.5 °F 24.1 °F 73% 29.95 in 6.0 mi West 12.7 mph - 0.00 in Snow Light Snow
11:53 AM 34.0 °F 24.2 °F 23.0 °F 64% 29.94 in 9.0 mi West 15.0 mph 25.3 mph 0.00 in Snow Light Snow
12:53 PM 37.0 °F 26.7 °F 21.0 °F 52% 29.94 in 10.0 mi West 19.6 mph 29.9 mph 0.00 in   Mostly Cloudy
1:53 PM 35.1 °F 23.3 °F 21.9 °F 59% 29.95 in 9.0 mi WSW 23.0 mph 32.2 mph 0.00 in Snow Light Snow
2:53 PM 37.0 °F 27.7 °F 19.0 °F 48% 29.96 in 10.0 mi WSW 16.1 mph 26.5 mph 0.00 in   Mostly Cloudy
3:53 PM 36.0 °F 26.7 °F 18.0 °F 48% 29.97 in 10.0 mi West 15.0 mph 25.3 mph N/A   Mostly Cloudy
4:53 PM 37.0 °F 28.1 °F 18.0 °F 46% 29.96 in 10.0 mi SW 15.0 mph - N/A   Mostly Cloudy
5:53 PM 36.0 °F 28.5 °F 21.0 °F 55% 29.97 in 10.0 mi SW 10.4 mph - N/A   Mostly Cloudy
6:53 PM 36.0 °F 28.0 °F 21.0 °F 55% 29.98 in 10.0 mi SW 11.5 mph - N/A   Mostly Cloudy
7:53 PM 33.1 °F 25.5 °F 21.9 °F 64% 29.98 in 10.0 mi SW 9.2 mph - N/A   Mostly Cloudy
8:53 PM 32.0 °F 24.8 °F 21.9 °F 66% 29.98 in 10.0 mi SSW 8.1 mph - N/A   Partly Cloudy
9:53 PM 30.0 °F 24.1 °F 21.0 °F 69% 29.97 in 10.0 mi SSW 5.8 mph - N/A   Partly Cloudy
10:53 PM 32.0 °F 24.8 °F 21.9 °F 66% 29.96 in 10.0 mi SW 8.1 mph - N/A   Mostly Cloudy
11:53 PM 33.1 °F - 21.9 °F 64% 29.93 in 10.0 mi Calm Calm - N/A   Mostly Cloudy